| time (UTC) | temp F | wind direction | speed MPH | gust MPH | rain 1hr in | rain 24hr in | rain mn in | humidity % | barometer mb |
| 20260503203519 | 39 | 67 | 23.0 | 39.0 | 0.06 | 0.44 | 0.44 | 94 | 987.6 |
| 20260503203017 | 39 | 71 | 23.0 | 32.0 | 0.05 | 0.43 | 0.43 | 94 | 987.6 |
| 20260503202519 | 39 | 106 | 20.0 | 34.0 | 0.06 | 0.43 | 0.43 | 94 | 988.1 |
| 20260503202019 | 39 | 59 | 21.0 | 34.0 | 0.06 | 0.43 | 0.43 | 94 | 988.3 |
| 20260503201518 | 38 | 113 | 20.0 | 33.0 | 0.07 | 0.42 | 0.42 | 94 | 988.7 |
| 20260503195513 | 39 | 64 | 17.0 | 35.0 | 0.14 | 0.40 | 0.40 | 94 | 990.1 |
| 20260503195020 | 39 | 105 | 15.0 | 32.0 | 0.15 | 0.40 | 0.40 | 94 | 990.2 |
| 20260503194520 | 39 | 79 | 20.0 | 32.0 | 0.14 | 0.39 | 0.39 | 94 | 990.7 |
| 20260503194013 | 39 | 103 | 18.0 | 33.0 | 0.15 | 0.39 | 0.39 | 94 | 991.0 |
| 20260503193520 | 39 | 108 | 20.0 | 34.0 | 0.15 | 0.38 | 0.38 | 93 | 991.3 |
| 20260503193020 | 39 | 25 | 19.0 | 34.0 | 0.15 | 0.38 | 0.38 | 93 | 991.8 |
| 20260503192514 | 39 | 60 | 14.0 | 23.0 | 0.15 | 0.37 | 0.37 | 93 | 992.3 |
| 20260503191523 | 39 | 117 | 14.0 | 33.0 | 0.15 | 0.35 | 0.35 | 93 | 992.7 |
| 20260503185512 | 39 | 113 | 13.0 | 29.0 | 0.09 | 0.26 | 0.26 | 93 | 993.5 |
| 20260503185031 | 39 | 255 | 13.0 | 29.0 | 0.08 | 0.25 | 0.25 | 93 | 993.6 |
| 20260503184519 | 39 | 103 | 13.0 | 33.0 | 0.09 | 0.25 | 0.25 | 92 | 993.9 |
| 20260503184013 | 39 | 95 | 18.0 | 33.0 | 0.08 | 0.24 | 0.24 | 92 | 994.4 |
| 20260503183521 | 39 | 73 | 17.0 | 28.0 | 0.08 | 0.23 | 0.23 | 92 | 995.0 |
| 20260503183019 | 39 | 108 | 15.0 | 28.0 | 0.08 | 0.22 | 0.22 | 92 | 995.4 |
| 20260503182513 | 39 | 58 | 12.0 | 33.0 | 0.09 | 0.22 | 0.22 | 92 | 995.8 |
| 20260503181020 | 39 | 134 | 16.0 | 24.0 | 0.09 | 0.19 | 0.19 | 92 | 996.4 |
| 20260503180535 | 39 | 62 | 14.0 | 24.0 | 0.08 | 0.18 | 0.18 | 92 | 996.6 |
| 20260503180021 | 39 | 19 | 12.0 | 22.0 | 0.09 | 0.18 | 0.18 | 92 | 997.2 |
| 20260503175523 | 39 | 113 | 13.0 | 22.0 | 0.09 | 0.17 | 0.17 | 92 | 997.5 |
| 20260503175013 | 39 | 72 | 11.0 | 24.0 | 0.09 | 0.17 | 0.17 | 92 | 997.7 |
| 20260503172520 | 39 | 47 | 11.0 | 20.0 | 0.07 | 0.13 | 0.13 | 92 | 999.0 |
| 20260503172019 | 40 | 65 | 12.0 | 20.0 | 0.06 | 0.12 | 0.12 | 92 | 999.2 |
| 20260503171513 | 40 | 135 | 9.0 | 21.0 | 0.05 | 0.11 | 0.11 | 91 | 999.4 |
| 20260503150520 | 41 | 127 | 7.0 | 13.0 | 0.01 | 0.01 | 0.01 | 89 | 1007.0 |
| 20260503131021 | 42 | 338 | 6.0 | 13.0 | 0.00 | 0.00 | 0.00 | 86 | 1010.2 |
| 20260503130519 | 42 | 97 | 4.0 | 11.0 | 0.00 | 0.00 | 0.00 | 86 | 1010.0 |
| 20260503110519 | 41 | 100 | 2.0 | 7.0 | 0.00 | 0.00 | 0.00 | 88 | 1011.8 |
| 20260503081514 | 40 | 138 | 1.0 | 3.0 | 0.00 | 0.00 | 0.00 | 87 | 1013.8 |
| 20260503081021 | 40 | 86 | 1.0 | 3.0 | 0.00 | 0.00 | 0.00 | 87 | 1013.9 |
| 20260503080531 | 40 | 132 | 0.0 | 3.0 | 0.00 | 0.00 | 0.00 | 87 | 1013.9 |
| 20260503072521 | 40 | 108 | 1.0 | 3.0 | 0.00 | 0.00 | 0.00 | 87 | 1014.1 |
| 20260503072020 | 40 | 124 | 1.0 | 3.0 | 0.00 | 0.00 | 0.00 | 87 | 1014.3 |
| 20260503071514 | 40 | 115 | 1.0 | 3.0 | 0.00 | 0.00 | 0.00 | 86 | 1014.3 |
| 20260503071032 | 40 | 129 | 1.0 | 3.0 | 0.00 | 0.00 | 0.00 | 86 | 1014.2 |
| 20260503070521 | 40 | 98 | 1.0 | 3.0 | 0.00 | 0.00 | 0.00 | 86 | 1014.4 |
| 20260503055021 | 40 | 93 | 1.0 | 2.0 | 0.00 | 0.00 | 0.00 | 83 | 1014.7 |
| 20260503054514 | 40 | 111 | 0.0 | 1.0 | 0.00 | 0.00 | 0.00 | 83 | 1014.8 |
| 20260503054021 | 40 | 1 | 0.0 | 1.0 | 0.00 | 0.00 | 0.00 | 83 | 1014.9 |
| 20260503053520 | 40 | 1 | 0.0 | 1.0 | 0.00 | 0.00 | 0.00 | 83 | 1014.8 |
| 20260503053015 | 39 | 1 | 0.0 | 1.0 | 0.00 | 0.00 | 0.00 | 82 | 1014.9 |
| 20260503052521 | 39 | 1 | 0.0 | 1.0 | 0.00 | 0.00 | 0.00 | 82 | 1015.0 |
| 20260503052020 | 39 | 1 | 0.0 | 1.0 | 0.00 | 0.00 | 0.00 | 81 | 1015.1 |
| 20260503051514 | 39 | 1 | 0.0 | 1.0 | 0.00 | 0.00 | 0.00 | 81 | 1015.2 |
| 20260503051021 | 40 | 1 | 0.0 | 1.0 | 0.00 | 0.00 | 0.00 | 80 | 1015.3 |
| 20260503050535 | 40 | 1 | 0.0 | 1.0 | 0.00 | 0.00 | 0.00 | 80 | 1015.2 |
| 20260503050015 | 40 | 1 | 0.0 | 2.0 | 0.00 | 0.00 | 0.00 | 81 | 1015.1 |
| 20260503045521 | 40 | 1 | 1.0 | 2.0 | 0.00 | 0.00 | 0.00 | 81 | 1015.2 |
| 20260503045018 | 40 | 230 | 0.0 | 1.0 | 0.00 | 0.00 | 0.00 | 82 | 1015.4 |
| 20260503044513 | 40 | 230 | 0.0 | 1.0 | 0.00 | 0.00 | 0.00 | 82 | 1015.5 |
| 20260503044021 | 40 | 230 | 0.0 | 1.0 | 0.00 | 0.00 | 0.00 | 82 | 1015.6 |
| 20260503043520 | 39 | 230 | 0.0 | 1.0 | 0.00 | 0.00 | 0.00 | 82 | 1015.6 |
| 20260503043014 | 39 | 230 | 0.0 | 1.0 | 0.00 | 0.00 | 0.00 | 82 | 1015.7 |
| 20260503042521 | 39 | 230 | 0.0 | 1.0 | 0.00 | 0.00 | 0.00 | 83 | 1015.7 |
| 20260503042018 | 39 | 230 | 0.0 | 1.0 | 0.00 | 0.00 | 0.00 | 82 | 1015.7 |
| 20260503041519 | 39 | 230 | 0.0 | 1.0 | 0.00 | 0.00 | 0.00 | 82 | 1015.7 |
| 20260503041021 | 39 | 230 | 0.0 | 0.0 | 0.00 | 0.00 | 0.00 | 82 | 1015.8 |
| 20260503040519 | 39 | 230 | 0.0 | 0.0 | 0.00 | 0.00 | 0.00 | 82 | 1015.8 |
| 20260503040013 | 39 | 230 | 0.0 | 0.0 | 0.00 | 0.00 | 0.00 | 82 | 1016.0 |
| 20260503035522 | 39 | 230 | 0.0 | 1.0 | 0.00 | 0.00 | 0.00 | 83 | 1016.0 |
| 20260503035018 | 39 | 230 | 0.0 | 1.0 | 0.00 | 0.00 | 0.00 | 83 | 1016.0 |
| 20260503034514 | 39 | 230 | 0.0 | 1.0 | 0.00 | 0.00 | 0.00 | 82 | 1016.1 |
| 20260503034032 | 39 | 231 | 0.0 | 0.0 | 0.00 | 0.00 | 0.00 | 82 | 1016.2 |
| 20260503033520 | 39 | 231 | 0.0 | 1.0 | 0.00 | 0.00 | 0.00 | 81 | 1016.1 |
| 20260503033015 | 39 | 231 | 0.0 | 1.0 | 0.00 | 0.00 | 0.00 | 81 | 1016.1 |
| 20260503032532 | 40 | 231 | 0.0 | 0.0 | 0.00 | 0.00 | 0.00 | 81 | 1016.0 |
| 20260503032019 | 40 | 231 | 0.0 | 1.0 | 0.00 | 0.00 | 0.00 | 80 | 1016.1 |
| 20260503031514 | 40 | 231 | 0.0 | 3.0 | 0.00 | 0.00 | 0.00 | 80 | 1016.1 |
| 20260503031022 | 40 | 222 | 1.0 | 3.0 | 0.00 | 0.00 | 0.00 | 80 | 1016.0 |
| 20260503030518 | 40 | 301 | 0.0 | 1.0 | 0.00 | 0.00 | 0.00 | 79 | 1016.0 |
| 20260503030031 | 40 | 268 | 0.0 | 1.0 | 0.00 | 0.00 | 0.00 | 79 | 1015.9 |
| 20260503025521 | 40 | 231 | 0.0 | 1.0 | 0.00 | 0.00 | 0.00 | 79 | 1016.2 |
| 20260503025018 | 40 | 229 | 0.0 | 1.0 | 0.00 | 0.00 | 0.00 | 78 | 1016.2 |
| 20260503024514 | 40 | 229 | 0.0 | 1.0 | 0.00 | 0.00 | 0.00 | 78 | 1016.2 |
| 20260503024022 | 40 | 271 | 0.0 | 1.0 | 0.00 | 0.00 | 0.00 | 78 | 1016.2 |
| 20260503023518 | 40 | 249 | 0.0 | 1.0 | 0.00 | 0.00 | 0.00 | 78 | 1016.3 |
| 20260503023014 | 40 | 250 | 0.0 | 1.0 | 0.00 | 0.00 | 0.00 | 78 | 1016.4 |
| 20260503022521 | 40 | 250 | 0.0 | 1.0 | 0.00 | 0.00 | 0.00 | 78 | 1016.4 |
| 20260503022019 | 40 | 245 | 0.0 | 1.0 | 0.00 | 0.00 | 0.00 | 78 | 1016.4 |
| 20260503021514 | 40 | 279 | 0.0 | 1.0 | 0.00 | 0.00 | 0.00 | 78 | 1016.3 |
| 20260503021022 | 40 | 296 | 0.0 | 1.0 | 0.00 | 0.00 | 0.00 | 79 | 1016.4 |
| 20260503020518 | 40 | 291 | 0.0 | 1.0 | 0.00 | 0.00 | 0.00 | 79 | 1016.4 |
| 20260503020015 | 40 | 271 | 0.0 | 1.0 | 0.00 | 0.00 | 0.00 | 79 | 1016.5 |
| 20260503015522 | 40 | 250 | 0.0 | 1.0 | 0.00 | 0.00 | 0.00 | 79 | 1016.6 |
| 20260503015019 | 40 | 249 | 0.0 | 2.0 | 0.00 | 0.00 | 0.00 | 78 | 1016.5 |
| 20260503014514 | 41 | 249 | 0.0 | 2.0 | 0.00 | 0.00 | 0.00 | 78 | 1016.5 |
| 20260503014021 | 41 | 252 | 0.0 | 1.0 | 0.00 | 0.00 | 0.00 | 78 | 1016.6 |
| 20260503013519 | 41 | 248 | 0.0 | 1.0 | 0.00 | 0.00 | 0.00 | 78 | 1016.6 |
| 20260503013015 | 41 | 283 | 0.0 | 2.0 | 0.00 | 0.00 | 0.00 | 78 | 1016.5 |
| 20260503012521 | 41 | 263 | 0.0 | 2.0 | 0.00 | 0.00 | 0.00 | 79 | 1016.6 |
| 20260503012019 | 41 | 310 | 0.0 | 1.0 | 0.00 | 0.00 | 0.00 | 80 | 1016.6 |
| 20260503011514 | 41 | 315 | 0.0 | 1.0 | 0.00 | 0.00 | 0.00 | 80 | 1016.7 |
| 20260503011021 | 41 | 223 | 0.0 | 1.0 | 0.00 | 0.00 | 0.00 | 80 | 1016.6 |
| 20260503010518 | 42 | 217 | 0.0 | 1.0 | 0.00 | 0.00 | 0.00 | 79 | 1016.6 |
| 20260503010014 | 42 | 258 | 0.0 | 2.0 | 0.00 | 0.00 | 0.00 | 79 | 1016.5 |
| 20260503005522 | 42 | 231 | 0.0 | 2.0 | 0.00 | 0.00 | 0.00 | 79 | 1016.5 |
| 20260503005023 | 42 | 286 | 0.0 | 2.0 | 0.00 | 0.00 | 0.00 | 79 | 1016.4 |
| 20260503004514 | 42 | 345 | 0.0 | 4.0 | 0.00 | 0.00 | 0.00 | 79 | 1016.4 |
| 20260503004023 | 42 | 188 | 0.0 | 3.0 | 0.00 | 0.00 | 0.00 | 78 | 1016.4 |
| 20260503003518 | 42 | 225 | 1.0 | 3.0 | 0.00 | 0.00 | 0.00 | 78 | 1016.2 |
| 20260503003019 | 42 | 237 | 0.0 | 4.0 | 0.00 | 0.00 | 0.00 | 78 | 1016.4 |
| 20260503001025 | 43 | 236 | 0.0 | 1.0 | 0.00 | 0.00 | 0.00 | 75 | 1016.1 |
| 20260503000522 | 43 | 274 | 0.0 | 1.0 | 0.00 | 0.00 | 0.00 | 74 | 1016.1 |
| 20260503000018 | 44 | 247 | 0.0 | 1.0 | 0.00 | 0.00 | 0.00 | 74 | 1016.1 |
| 20260502235514 | 44 | 271 | 0.0 | 1.0 | 0.00 | 0.00 | 0.00 | 73 | 1016.0 |
| 20260502233518 | 43 | 274 | 0.0 | 2.0 | 0.00 | 0.00 | 0.00 | 74 | 1015.9 |
| 20260502233025 | 43 | 224 | 0.0 | 2.0 | 0.00 | 0.00 | 0.00 | 75 | 1015.9 |
| 20260502232539 | 43 | 254 | 0.0 | 2.0 | 0.00 | 0.00 | 0.00 | 75 | 1015.8 |
| 20260502232018 | 43 | 193 | 1.0 | 2.0 | 0.00 | 0.00 | 0.00 | 75 | 1015.8 |
| 20260502231515 | 43 | 238 | 0.0 | 4.0 | 0.00 | 0.00 | 0.00 | 75 | 1015.8 |
| 20260502225533 | 43 | 278 | 3.0 | 11.0 | 0.00 | 0.06 | 0.00 | 77 | 1015.9 |
| 20260502225019 | 43 | 230 | 3.0 | 11.0 | 0.00 | 0.06 | 0.00 | 78 | 1015.8 |
| 20260502224515 | 44 | 231 | 2.0 | 7.0 | 0.00 | 0.06 | 0.00 | 78 | 1015.5 |
| 20260502224022 | 44 | 328 | 2.0 | 7.0 | 0.00 | 0.06 | 0.00 | 77 | 1015.4 |
| 20260502223530 | 44 | 220 | 2.0 | 7.0 | 0.00 | 0.06 | 0.00 | 77 | 1015.2 |
| 20260502223014 | 44 | 43 | 1.0 | 7.0 | 0.00 | 0.06 | 0.00 | 76 | 1015.1 |
| 20260502221019 | 45 | 311 | 2.0 | 7.0 | 0.00 | 0.06 | 0.00 | 75 | 1014.8 |
| 20260502220515 | 45 | 250 | 2.0 | 11.0 | 0.00 | 0.06 | 0.00 | 75 | 1014.8 |
| 20260502220022 | 46 | 257 | 2.0 | 10.0 | 0.00 | 0.06 | 0.00 | 74 | 1014.7 |
| 20260502215519 | 46 | 31 | 4.0 | 10.0 | 0.00 | 0.24 | 0.00 | 73 | 1014.9 |
| 20260502215014 | 47 | 235 | 3.0 | 10.0 | 0.00 | 0.24 | 0.00 | 72 | 1014.9 |
| 20260502212514 | 47 | 262 | 3.0 | 9.0 | 0.00 | 0.24 | 0.00 | 72 | 1014.5 |
| 20260502212033 | 47 | 240 | 4.0 | 11.0 | 0.00 | 0.24 | 0.00 | 71 | 1014.5 |
| 20260502211519 | 48 | 276 | 3.0 | 11.0 | 0.00 | 0.24 | 0.00 | 71 | 1014.6 |
| 20260502211014 | 48 | 246 | 4.0 | 13.0 | 0.00 | 0.24 | 0.00 | 71 | 1014.6 |
| 20260502204014 | 48 | 260 | 3.0 | 9.0 | 0.00 | 0.31 | 0.00 | 72 | 1014.7 |